DELTA 1 DEB, 8004

Orbit data source: Space-Track

DELTA 1 DEB, 8004 is space debris in SSO originally from a launch on Sun, 23 Jul 1972 UTC launched from the Air Force Western Test Range (AFWTR). Debris objects in space refer to the collection of defunct objects orbiting the Earth. Examples of debris include non-operational satellites, rocket bodies, and fragments generated from explosions, collisions, or faulty payload assembly.

Loading next visibility...
Identifier
8004, 1972-058DF
Orbit
SSO
Country
Flag of USUS
Related business
Manufacturer
Unknown
Mission
Spacecraft
Bus & Motor
Unknown
Mass
Unknown
Launch date (UTC)
1972-07-23 (54 years ago)
Launch vehicle
Unknown
Launch site
Air Force Western Test Range (AFWTR)
Object type
Payload
Rocket body
Debris
Shape & HBR
Unknown shape, 0.2 m
Radar Cross Section
Medium (>0.1 m² and <1 m²)

Expand to show TLE details & history
Last TLE update: 1 week ago

TLE from 1 week ago
0 DELTA 1 DEB
1 08004U 72058DF  26154.80324030  .00002246  00000-0  57029-3 0  9992
2 08004  97.5645 162.1649 0180286 304.3880  54.0376 14.42335028772878
Epoch: 2026-06-03T19:16Z
TLE epoch observation values (Epoch: 2026-06-03T19:16:39.961Z)
Latitude
-0.0001°
Longitude
-19.25821°
Altitude
679.826 km
Speed
7.556 km/s
True Right ascension
10h 48m 39s
True Declination
0° 00' 00"
Sunlit
Object was in daylight at epoch
Visualization orbit readout
Latitude
Unknown
Longitude
Unknown
Altitude
Unknown
Speed
Unknown
Apparent Right ascension
Unknown
Apparent Declination
Unknown
Sunlit
N/A
Visualization observer readout
Local Sidereal Time
12:11:05
Azimuth
Unknown
Elevation
Unknown
Doppler factor
Unknown
Orbital elements
Apogee altitude
876.341 km
Perigee altitude
619.398 km
Semi-major axis
7,126.006 km
Eccentricity
0.01803
Inclination
97.5645°
RAAN
162.1649°
Arg. of periapsis
304.388°
True anomaly
55.73193°
Mean anomaly
54.0376°
Eccentric anomaly
54.88254°
Mean motion
3.60806 °/min
Orbital period
99.78 mins
BSTAR
0.00057029
Loading maneuver chart data...
Computing Atmospheric mass density...
Loading historical data...
Loading historical data...
Loading historical data...
Loading historical data...
Loading historical data...
Loading historical data...
Loading historical data...

Documentation

Showing up to 5 results
|